Starlink 3638

operational
NORAD ID: 51786 Int'l Des: 2022-017 Owner: SPXS Country: US Constellation: starlink
LEOCIRCULAR

Starlink 3638について

説明を読み込み中...

リアルタイム位置

3D地球を読み込み中...

次回通過

高度履歴

Altitude vs Time

uPlot chart will show altitude changes over time

軌道要素

1 51786U 22017U 25307.40315037 .00001441 00000-0 10862-3 0 9999
2 51786 53.2190 196.0437 0001301 85.0254 275.0887 15.08840977203212
Epoch: Nov 3, 2025 • Age: 30 hours

現在のステータス

高度 544.0 km
速度 7.60 km/s
衛星直下点 46.75°N, 44.13°W
打ち上げ日 Feb 25, 2022
運用期間 3.6 years
タイプ internet

技術仕様

分類 Payload
質量 297.00 kg
乾燥質量 275.00 kg
総質量 297.00 kg
長さ 0.20 m
直径 2.80 m
スパン 9.00 m
形状 Box + pan
製造者 SPXS
バスタイプ Starlink
フェーズステータス In Orbit
所有者/国 SPXS/US

大規模コンステレーション

Loading constellations...